Weather History for Gonzales, LA

Change the Weather History Date:

Saturday, June 22, 2013

  Actual Average (KBTR) Record (KBTR)
Temperature  
Mean Temperature 80 °F 82 °F  
Max Temperature 90 °F 92 °F 99 °F (1897)
Min Temperature 71 °F 73 °F 60 °F (1976)
Degree Days  
Heating Degree Days 0 0  
Month to date heating degree days 0  
Since 1 June heating degree days 0  
Since 1 July heating degree days 1555  
Cooling Degree Days 15 17  
Month to date cooling degree days 346  
Year to date cooling degree days 911  
Since 1 June cooling degree days 346  
Growing Degree Days 30 (Base 50)    
Moisture  
Dew Point 73 °F    
Average Humidity 79    
Maximum Humidity 98    
Minimum Humidity 57    
Precipitation  
Precipitation 0.00 in 0.21 in 2.68 in (1989)
Month to date precipitation 4.61  
Year to date precipitation 29.13  
Snow  
Snow 0.00 in - - ()
Month to date snowfall  
Since 1 June snowfall  
Since 1 July snowfall  
Snow Depth -    
Sea Level Pressure  
Sea Level Pressure 30.05 in    
Wind  
Wind Speed 2 mph (ESE)    
Max Wind Speed 12 mph    
Max Gust Speed -    
Visibility 9 miles    
Events Thunderstorm    
T = Trace of Precipitation, MM = Missing Value Source: NWS Daily Summary

Daily Weather History Graph

Daily Weather History Graph

Search for Another Location

Airport:

Trip Planner

Search our weather history database for the weather conditions in past years. The results will help you decide how hot, cold, wet, or windy it might be!

Date:

Astronomy

Jun. 22, 2013 Rise Set
Actual Time 6:03 AM CDT 8:08 PM CDT
Civil Twilight 5:35 AM CDT 8:36 PM CDT
Nautical Twilight 5:02 AM CDT 9:09 PM CDT
Astronomical Twilight 4:26 AM CDT 9:45 PM CDT
Moon 7:27 PM CDT (6/22) 5:11 AM CDT (6/22)
Length of Visible Light 15h 00m
Length of Day
14h 05m
Waxing Gibbous, 99% of the Moon is Illuminated
Jun 22
Waxing Gibbous
Jun 23
Full
Jun 29
Last Quarter
Jul 8
New
Jul 15
First Quarter

Hourly Weather History & Observations

Time (CDT) Temp. Heat Index Dew Point Humidity Pressure Visibility Wind Dir Wind Speed Gust Speed Precip Events Conditions
12:15 AM 76.1 °F - 72.9 °F 90% 30.06 in 10.0 mi Calm Calm - N/A   Clear
12:35 AM 74.7 °F - 72.5 °F 93% 30.06 in 10.0 mi Calm Calm - N/A   Clear
12:55 AM 74.3 °F - 72.5 °F 94% 30.06 in 7.0 mi Calm Calm - N/A   Clear
1:15 AM 73.9 °F - 72.5 °F 95% 30.05 in 7.0 mi Calm Calm - N/A   Clear
1:35 AM 73.6 °F - 72.1 °F 95% 30.05 in 7.0 mi Calm Calm - N/A   Clear
1:55 AM 74.3 °F - 72.3 °F 94% 30.05 in 7.0 mi Calm Calm - N/A   Clear
2:15 AM 73.6 °F - 72.5 °F 96% 30.04 in 7.0 mi Calm Calm - N/A   Clear
2:35 AM 73.4 °F - 72.5 °F 97% 30.04 in 7.0 mi Calm Calm - N/A   Clear
2:55 AM 73.0 °F - 72.0 °F 96% 30.04 in 5.0 mi Calm Calm - N/A   Clear
3:15 AM 72.9 °F - 72.0 °F 97% 30.03 in 5.0 mi Calm Calm - N/A   Clear
3:35 AM 73.4 °F - 72.1 °F 96% 30.03 in 7.0 mi Calm Calm - N/A   Clear
3:55 AM 72.5 °F - 71.4 °F 96% 30.03 in 5.0 mi Calm Calm - N/A   Clear
4:15 AM 72.1 °F - 71.6 °F 98% 30.03 in 4.0 mi Calm Calm - N/A   Clear
4:35 AM 72.5 °F - 71.6 °F 97% 30.04 in 5.0 mi Calm Calm - N/A   Clear
4:55 AM 72.5 °F - 71.6 °F 97% 30.04 in 5.0 mi Calm Calm - N/A   Clear
5:15 AM 72.9 °F - 71.8 °F 96% 30.05 in 5.0 mi Calm Calm - N/A   Clear
5:35 AM 72.9 °F - 71.8 °F 96% 30.05 in 5.0 mi Calm Calm - N/A   Clear
5:55 AM 72.1 °F - 71.4 °F 98% 30.05 in 4.0 mi Calm Calm - N/A   Clear
6:15 AM 71.6 °F - 70.9 °F 98% 30.06 in 3.0 mi Calm Calm - N/A   Clear
6:35 AM 72.5 °F - 71.4 °F 96% 30.06 in 4.0 mi Calm Calm - N/A   Clear
6:55 AM 73.4 °F - 72.0 °F 95% 30.07 in 4.0 mi Calm Calm - N/A   Clear
7:15 AM 75.4 °F - 73.8 °F 95% 30.07 in 5.0 mi Calm Calm - N/A   Clear
7:35 AM 77.2 °F - 74.8 °F 92% 30.07 in 7.0 mi Calm Calm - N/A   Clear
7:55 AM 78.4 °F - 75.2 °F 90% 30.08 in 7.0 mi ENE 3.5 mph - N/A   Clear
8:15 AM 80.1 °F 85.5 °F 76.1 °F 88% 30.08 in 10.0 mi Calm Calm - N/A   Clear
8:35 AM 80.6 °F 86.6 °F 75.9 °F 86% 30.08 in 10.0 mi East 3.5 mph - N/A   Clear
8:55 AM 81.9 °F 88.0 °F 74.5 °F 78% 30.08 in 10.0 mi East 5.8 mph - N/A   Clear
9:15 AM 83.1 °F 89.5 °F 73.6 °F 73% 30.08 in 10.0 mi ESE 3.5 mph - N/A   Clear
9:35 AM 84.2 °F 91.2 °F 73.8 °F 71% 30.08 in 10.0 mi ESE 5.8 mph - N/A   Clear
9:55 AM 84.7 °F 92.1 °F 73.9 °F 70% 30.08 in 10.0 mi East 4.6 mph - N/A   Scattered Clouds
10:15 AM 84.7 °F 91.7 °F 73.8 °F 69% 30.09 in 10.0 mi ESE 4.6 mph - N/A   Scattered Clouds
10:35 AM 86.0 °F 93.8 °F 73.8 °F 67% 30.09 in 10.0 mi ENE 5.8 mph - N/A   Scattered Clouds
10:55 AM 85.8 °F 92.2 °F 72.3 °F 64% 30.09 in 10.0 mi East 5.8 mph - N/A   Scattered Clouds
11:15 AM 87.1 °F 94.1 °F 72.7 °F 62% 30.09 in 10.0 mi East 5.8 mph - N/A   Scattered Clouds
11:35 AM 87.3 °F 94.0 °F 72.5 °F 61% 30.09 in 10.0 mi ESE 4.6 mph - N/A   Scattered Clouds
11:55 AM 87.1 °F 94.1 °F 72.5 °F 62% 30.09 in 10.0 mi ESE 4.6 mph - N/A   Scattered Clouds
12:15 PM 88.7 °F 95.7 °F 72.0 °F 58% 30.09 in 10.0 mi Calm Calm - N/A   Mostly Cloudy
12:35 PM 88.3 °F 95.9 °F 73.0 °F 60% 30.09 in 10.0 mi Calm Calm - N/A   Mostly Cloudy
12:55 PM 89.4 °F 96.8 °F 72.3 °F 57% 30.08 in 10.0 mi NE 3.5 mph - N/A   Scattered Clouds
1:15 PM 89.8 °F 98.1 °F 73.2 °F 58% 30.08 in 10.0 mi East 3.5 mph - N/A   Clear
1:35 PM 88.9 °F 97.1 °F 73.4 °F 60% 30.08 in 10.0 mi East 11.5 mph - N/A   Scattered Clouds
1:55 PM 83.7 °F 87.7 °F 70.0 °F 63% 30.08 in 10.0 mi East 5.8 mph - N/A   Overcast
2:15 PM 87.8 °F 93.8 °F 71.6 °F 58% 30.07 in 10.0 mi ESE 11.5 mph - N/A   Scattered Clouds
2:35 PM 85.1 °F 92.2 °F 73.4 °F 68% 30.06 in 10.0 mi ESE 6.9 mph - N/A   Clear
2:55 PM 86.7 °F 93.7 °F 72.7 °F 63% 30.05 in 10.0 mi East 8.1 mph - N/A   Clear
3:15 PM 87.3 °F 95.3 °F 73.9 °F 64% 30.05 in 10.0 mi ESE 5.8 mph - N/A   Clear
3:35 PM 88.0 °F 97.0 °F 74.3 °F 64% 30.04 in 10.0 mi SE 10.4 mph - N/A Thunderstorm Clear
3:55 PM 86.9 °F 93.3 °F 72.1 °F 61% 30.05 in 10.0 mi SE 8.1 mph - N/A Thunderstorm Clear
4:15 PM 86.5 °F 92.5 °F 71.4 °F 61% 30.05 in 10.0 mi SE 3.5 mph - N/A   Scattered Clouds
4:35 PM 86.0 °F 92.6 °F 72.7 °F 64% 30.04 in 10.0 mi SE 6.9 mph - N/A   Clear
4:55 PM 85.3 °F 91.8 °F 72.9 °F 66% 30.03 in 10.0 mi SE 3.5 mph - N/A   Clear
5:15 PM 85.6 °F 91.8 °F 72.1 °F 64% 30.02 in 10.0 mi SE 4.6 mph - N/A   Clear
5:35 PM 85.6 °F 91.5 °F 72.0 °F 63% 30.02 in 10.0 mi SE 5.8 mph - N/A   Clear
5:55 PM 86.9 °F 93.3 °F 72.0 °F 61% 30.02 in 10.0 mi ESE 6.9 mph - N/A   Clear
6:15 PM 86.9 °F 93.3 °F 71.8 °F 61% 30.01 in 10.0 mi ESE 4.6 mph - N/A   Clear
6:35 PM 86.4 °F 93.0 °F 72.5 °F 63% 30.01 in 10.0 mi SE 3.5 mph - N/A   Clear
6:55 PM 85.6 °F 92.2 °F 72.7 °F 65% 30.01 in 10.0 mi ESE 6.9 mph - N/A   Clear
7:15 PM 85.5 °F 92.2 °F 72.9 °F 66% 30.00 in 10.0 mi ESE 6.9 mph - N/A   Clear
7:35 PM 84.6 °F 91.4 °F 73.6 °F 69% 30.00 in 10.0 mi ESE 4.6 mph - N/A   Clear
7:55 PM 83.7 °F 89.2 °F 72.1 °F 68% 30.00 in 10.0 mi Calm Calm - N/A   Clear
8:15 PM 82.6 °F 87.8 °F 72.5 °F 71% 30.00 in 10.0 mi Calm Calm - N/A   Clear
8:35 PM 79.5 °F - 73.6 °F 82% 29.99 in 10.0 mi Calm Calm - N/A   Clear
8:55 PM 78.1 °F - 73.6 °F 86% 30.00 in 10.0 mi Calm Calm - N/A   Clear
9:15 PM 77.4 °F - 73.6 °F 88% 30.00 in 10.0 mi Calm Calm - N/A   Clear
9:35 PM 79.9 °F - 73.0 °F 80% 30.01 in 10.0 mi Calm Calm - N/A   Clear
9:55 PM 75.9 °F - 73.4 °F 92% 30.02 in 10.0 mi Calm Calm - N/A   Clear
10:15 PM 75.2 °F - 73.2 °F 94% 30.03 in 10.0 mi Calm Calm - N/A   Clear
10:55 PM 74.8 °F - 72.7 °F 93% 30.03 in 10.0 mi Calm Calm - N/A   Clear
11:15 PM 74.3 °F - 72.5 °F 94% 30.03 in 10.0 mi Calm Calm - N/A   Clear
11:35 PM 73.9 °F - 72.5 °F 95% 30.03 in 10.0 mi Calm Calm - N/A   Clear
11:55 PM 74.1 °F - 72.5 °F 95% 30.04 in 10.0 mi Calm Calm - N/A   Clear